Tracking 29892 objects as of 21-Nov-2024
HD Live streaming from Space Station
objects crossing your sky now

STARLINK-5455

Track STARLINK-5455 now!
10-day predictions
STARLINK-5455 is classified as:


NORAD ID: 55668
Int'l Code: 2023-021AS
Perigee: 577.1 km
Apogee: 581.3 km
Inclination: 70.0 °
Period: 96.1 minutes
Semi major axis: 6950 km
RCS: Unknown
Launch date: February 17, 2023
Source: United States (US)
Launch site: AIR FORCE WESTERN TEST RANGE (AFWTR)
Your satellite tracking list
Your tracking list is empty




NASA's NSSDC Master Catalog

Two Line Element Set (TLE):
1 55668U 23021AS  24324.96353345  .00000488  00000-0  48668-4 0  9997
2 55668  69.9991 281.4657 0002976 269.4287  90.6531 14.98330639 98175
Source of the keplerian elements: AFSPC